Home   Weather   Sligo   Past weeks
Flag for Ireland

Past Weather in Sligo, Ireland — Yesterday and Last 2 Weeks

Now
48 °F

Cool.


Feels Like: 47 °F
Forecast: 60 / 46 °F
Wind: 3 mph from East

Location: Finner

Current Time: May 21, 2019 at 11:59:47 pm

Latest Report: May 21, 2019 at 11:00 pm


Visibility: 8 mi

Pressure: 30.14 "Hg

Humidity: 73%

Dew Point: 40 °F

Location of SligoLocation

Past Weather in Sligo — Graph

°F

Sligo Temperature Yesterday

Maximum temperature yesterday: 57 °F (at 5:00 pm)
Minimum temperature yesterday: 46 °F (at 1:00 am)
Average temperature yesterday: 51 °F

High & Low Weather Summary for the Past Weeks

 TemperatureHumidityPressure
High71 °F (May 15, 4:00 pm)97% (May 21, 6:00 am)30.58 "Hg (May 21, 6:00 am)
Low37 °F (May 12, 2:00 am)25% (May 14, 4:00 pm)29.38 "Hg (May 8, 9:00 am)
Average51 °F71%30.04 "Hg
* Reported May 6 10:00 pm — May 21 10:00 pm, Sligo. Weather by CustomWeather, © 2019

Note: Actual official high and low records may vary slightly from our data, if they occured in-between our weather recording intervals... More about our weather records

Advertising

Sligo Weather History for the Previous 24 Hours

Scroll right to see more
 ConditionsComfort  
Time TempWeatherWind HumidityBarometerVisibility
10:00 pm
Tue, May 21
50 °FCool.3 mph69%30.14 "Hg10 mi
9:00 pm54 °FCool.5 mph61%30.14 "Hg8 mi
8:00 pm58 °FRefreshingly cool.6 mph58%30.12 "Hg10 mi
7:00 pm57 °FCool.2 mph60%30.13 "Hg11 mi
6:00 pm60 °FRefreshingly cool.3 mph50%30.12 "Hg9 mi
5:00 pm59 °FRefreshingly cool.3 mph47%30.13 "Hg7 mi
4:00 pm58 °FRefreshingly cool.3 mph55%30.14 "Hg11 mi
3:00 pm58 °FRefreshingly cool.5 mph53%30.15 "Hg9 mi
2:00 pm56 °FRefreshingly cool.5 mph57%30.16 "Hg10 mi
1:00 pm56 °FRefreshingly cool.3 mph60%30.15 "Hg11 mi
12:00 pm56 °FCool.2 mph60%30.15 "Hg8 mi
11:00 am54 °FCool.2 mph62%30.15 "Hg11 mi
10:00 am52 °FCool.2 mph68%30.16 "Hg10 mi
9:00 am50 °FCool.1 mph85%30.15 "Hg10 mi
8:00 am46 °FCool.1 mph92%30.14 "Hg7 mi
7:00 am42 °FQuite cool.1 mph97%30.14 "Hg9 mi
6:00 am39 °FChilly.2 mph97%30.13 "Hg3 mi
5:00 am40 °FChilly.1 mph96%30.13 "Hg1 mi
4:00 am40 °FQuite cool.2 mph96%30.13 "Hg2 mi
3:00 am40 °FChilly.1 mph94%30.13 "Hg6 mi
2:00 am42 °FQuite cool.1 mph93%30.11 "Hg7 mi
1:00 am43 °FQuite cool.1 mph91%30.11 "Hg7 mi
12:00 am46 °FCool.1 mph88%30.11 "Hg7 mi
11:00 pm
Mon, May 20
49 °FCool.3 mph80%30.10 "Hg9 mi
Weather by CustomWeather, © 2019

See weather overview